Other Public Products
Issued by NWS Grand Forks, ND

Home | Current Version | Previous Version | Text Only | Print | Product List | Glossary On
Versions: 1 2 3 4 5 6 7 8 9 10 11 12 13 14 15 16 17 18 19 20 21 22 23 24 25 26 27 28 29 30 31 32 33 34 35 36 37 38 39 40 41 42 43 44 45 46 47 48 49 50
474
FPUS83 KFGF 230131
OPUFGF
PRAIRIE TO PINES WEATHER ROUNDUP
NATIONAL WEATHER SERVICE EASTERN NORTH DAKOTA/GRAND FORKS ND
800 PM CDT TUE AUG 22 2017

 **SATELLITE DATA USED TO AUGMENT SKY COVER AT AUTOMATED STATIONS**
 *****  WEATHER ACROSS EASTERN NORTH DAKOTA  *****

CITY           SKY/WX    TMP DP  RH WIND       PRES   REMARKS
GRAND FORKS    FAIR      67  49  52 N8        30.05S
GRAND FORKS AF FAIR      65  48  55 N5        30.06S
GRAND CITY NWS NOT AVBL
BUXTON           N/A     67  44  42 N5          N/A
DEVILS LAKE    FAIR      66  44  45 N7        30.10S
FARGO          FAIR      71  44  37 NW10      30.06S
WAHPETON ARPT  FAIR      61  46  59 NW6       30.08S
$$

 *****  WEATHER ACROSS CENTRAL AND WESTERN NORTH DAKOTA  *****

CITY           SKY/WX    TMP DP  RH WIND       PRES   REMARKS
JAMESTOWN      FAIR      65  53  65 N5        30.10S
BISMARCK       FAIR      73  44  35 NW5       30.12S
MINOT          FAIR      73  44  35 N5        30.10S
MINOT AFB      FAIR      74  39  28 NE6       30.08F
GARRISON         N/A     72  42  34 NE5       30.10F
WILLISTON      FAIR      77  41  27 S3        30.09F
DICKINSON      FAIR      73  43  33 E7        30.11F
HETTINGER      FAIR      74  47  38 E8        30.12F
$$

 *****  OTHER OBSERVATIONS NORTHEAST NORTH DAKOTA  *****

CITY           SKY/WX    TMP DP  RH WIND       PRES   REMARKS
WALHALLA       FAIR      64  64 100 N7        30.07S
LANGDON        FAIR      63  48  59 N5        30.10S
CAVALIER       FAIR      66  48  52 N6        30.06S
GRAFTON        FAIR      64  46  52 N6        30.07S
CANDO          FAIR      64  48  55 NW5       30.12S
FORT TOTTEN      N/A     67  44  42 N2        29.95S
ROLLA          FAIR      63  48  59 NW5       30.11F
RUGBY          FAIR      66  46  48 NE5       30.09F
 ***** THE ABOVE OBSERVATIONS ARE NON NWS ARE NOT QUALITY
        CONTROLLED AND MAY MIS-REPORT RAIN FOR SNOW...
$$

 *****  OTHER OBSERVATIONS SOUTHEAST NORTH DAKOTA *****

CITY           SKY/WX    TMP DP  RH WIND       PRES   REMARKS
COOPERSTOWN    FAIR      63  46  55 NW8       30.10S
VALLEY CITY      N/A     64  46  52 NW6       30.11S
OAKES          NOT AVBL
GWINNER        CLEAR     63  52  67 CALM      30.10S
SHEYENNE NWR     N/A     70  47  44 NW5       29.95S
BUFFALO          N/A     65  38  37 N5          N/A
WYNDMERE       NOT AVBL
 ***** THE ABOVE OBSERVATIONS ARE NON NWS ARE NOT QUALITY
       CONTROLLED AND MAY MIS-REPORT RAIN FOR SNOW...
$$

  *****  WEATHER ACROSS NORTHERN MINNESOTA  *****

CITY           SKY/WX    TMP DP  RH WIND       PRES   REMARKS
FLAG ISLAND    FAIR      63  48  59 N7        30.01S
WARROAD        FAIR      59  54  82 NW7       30.05R
ROSEAU         CLOUDY    64  55  72 N5        30.04S
HALLOCK        FAIR      66  48  52 N10       30.05S
THF RVR FALLS  FAIR      66  49  54 NW9       30.06R
HALSTAD          N/A     64  46  53 N6          N/A
FOSSTON        FAIR      61  46  59 NW6       30.06R
BAUDETTE       FAIR      61  52  72 NW10      30.01R
WASKISH        FAIR      61  54  77 N6        30.02S
CROOKSTON      FAIR      64  46  52 N8        30.06S
$$
  *****  WEATHER ACROSS CENTRAL AND WEST MINNESOTA  *****

CITY           SKY/WX    TMP DP  RH WIND       PRES   REMARKS
BEMIDJI        FAIR      61  50  67 NW9       30.03S
PARK RAPIDS    FAIR      65  47  52 NW8       30.04R
WADENA         FAIR      61  46  59 NW5       30.05S
DETROIT LAKES  FAIR      63  46  55 NW6       30.08R
MOORHEAD       FAIR      63  46  55 NW7       30.07S
FERGUS FALLS   FAIR      63  52  67 NW5       30.07R
ELBOW LAKE     FAIR      62  51  69 NW3       30.08S
MORRIS MN      FAIR      64  54  68 W5        30.08R
STAPLES        FAIR      57  46  67 NW6       30.05S
WHEATON        FAIR      64  48  55 W3        30.10S
$$
  *****  WEATHER ELSEWHERE ACROSS MINNESOTA  *****

CITY           SKY/WX    TMP DP  RH WIND       PRES   REMARKS
DULUTH         FAIR      60  52  74 NW9       29.97R
INTRNTL FALLS  FAIR      60  49  66 NW9G20    29.98R
ELY            CLOUDY    55  55 100 W3        29.95S
CLOQUET        FAIR      63  48  59 W7        29.99R
BRAINERD       FAIR      67  43  41 W6        30.03R
HIBBING        FAIR      56  53  90 NW7       29.98R
ALEXANDRIA     FAIR      65  49  56 W7        30.08S
SAINT CLOUD    FAIR      67  48  50 W9        30.03S
MINNEAPOLIS    FAIR      69  48  47 NW12      30.03S
$$

  *****  WEATHER ACROSS SOUTH DAKOTA  *****

CITY           SKY/WX    TMP DP  RH WIND       PRES   REMARKS
SIOUX FALLS    FAIR      68  56  65 CALM      30.12F
BROOKINGS      FAIR      67  51  56 NW5       30.13S
WATERTOWN      FAIR      66  49  54 NW7       30.11F
HURON          FAIR      69  50  50 N7        30.11F
SISSETON         N/A     66  54  65 NW6       30.08F
ABERDEEN       FAIR      71  48  43 N5        30.11S
MITCHELL       FAIR      73  51  46 CALM      30.12F
PIERRE         FAIR      74  52  46 SE6       30.09F
MOBRIDGE       FAIR      71  52  50 E6        30.10F
RAPID CITY     FAIR      78  47  33 E10       30.09F
$$

  *****  SOME WEATHER IN NEARBY STATES *****

CITY           SKY/WX    TMP DP  RH WIND       PRES   REMARKS
GLASGOW MT     FAIR      83  34  17 E5        30.04F
GREAT FALLS MT FAIR      87  30  13 E8        30.04F
CHEYENNE WY    FAIR      74  53  48 S14       30.25F
SCOTTSBLUFF NE FAIR      80  51  36 SE12      30.12F
OMAHA NE       FAIR      69  56  62 NW5       30.13S
DES MOINES IA  FAIR      72  49  44 N8        30.08S
DAVENPORT IA   FAIR      64  53  67 NW7       30.04S
CHICAGO IL     FAIR      73  48  41 NW14      29.95R
EAU CLAIRE WI  FAIR      65  48  54 W7        29.99S
LA CROSSE WI   PTCLDY    72  52  49 NW10      30.00R
$$

  *****  SOME NATIONAL WEATHER *****

CITY           SKY/WX    TMP DP  RH WIND       PRES   REMARKS
LA GUARDIA NY  MOCLDY    83  75  77 S13G18    29.76F HX  90
RALEIGH NC     FAIR      86  70  58 S8        29.94S HX  90
ATLANTA GA     FAIR      83  72  69 S10       30.01S
NEW ORLEANS LA MOCLDY    84  75  74 S6        30.00R HX  92
OKLAHOMA CITY  TSTM      71  69  93 N10       30.05F
ALBUQUERQUE NM FAIR      84  52  33 W3        30.21S
SALT LAKE CITY TSTM      79  52  38 S9        30.17R
LOS ANGELES CA FAIR      72  65  78 W14       29.93F
BOISE ID       FAIR      91  45  20 W8        29.98F
SEATTLE WA     FAIR      86  55  34 SW8       29.98F
$$

*** WEATHER ACROSS MANITOBA...SASKATCHEWAN AND ONTARIO ***
                ***ONTARIO***

CITY           SKY/WX    TMP DP  RH WIND       PRES   REMARKS
GERALDTON      MOCLDY    54  52  94 NW9       29.74R
THUNDER BAY    MOCLDY    59  52  77 W7        29.83R
SIOUX LOOKOUT  LGT RAIN  59  50  72 N7G17     29.92R
TORONTO        PTCLDY    66  55  68 NW18G28   29.75R
BIG TROUT LK   CLEAR     52  36  54 N9        29.94R
PICKLE LAKE    MOCLDY    52  43  71 N9G20     29.92R
DRYDEN         CLOUDY    55  52  88 W7        29.97R
KENORA         PTCLDY    57  50  77 NW10G17   30.02R
$$
                *** MANITOBA***

CITY           SKY/WX    TMP DP  RH WIND       PRES   REMARKS
BRANDON        PTCLDY    70  41  35 NW5       30.08S
DAUPHIN        PTCLDY    63  52  67 SE6       30.05F
ISLAND LAKE    PTCLDY    54  43  66 N6        30.06S
PILOT MOUND      N/A     66  43  42 N6          N/A
THE PAS        CLOUDY    68  48  49 E6        30.02S
THOMPSON       MOCLDY    55  41  58 NE5       30.08S
WINNIPEG       MOCLDY    63  54  72 N10       30.06R
CHURCHILL      CLEAR     52  41  66 W3        30.09S
GILLAM         PTCLDY    55  39  54 NE5       30.08
$$
                ***SASKATCHEWAN***

CITY           SKY/WX    TMP DP  RH WIND       PRES   REMARKS
ESTEVAN        MOCLDY    72  43  35 E6        30.08F
KINDERSLEY     MOSUNNY   81  45  28 W3        29.99F
LLOYDMINSTER   MOSUNNY   72  57  60 N5        30.01S
PRINCE ALBERT  MOCLDY    66  54  63 E3        30.02F
REGINA         MOCLDY    79  39  24 CALM      30.02F
YORKTON        CLOUDY    66  48  52 S5        30.06F
N. BATTLEFORD  SUNNY     73  55  53 NE2       30.01F



USA.gov is the U.S. government's official web portal to all federal, state and local government web resources and services.